Flag for Austria Weather past 2 weeks in Oberwart, Burgenland, Austria

Now
59 °F

Light rain. Overcast.


Feels Like: 59 °F
Forecast: 46 / 65 °F
Wind: 1 mph from North

Location: Eisenstadt

Current Time: Sep 5, 2015 at 7:54:02 AM

Latest Report: Sep 5, 2015 at 5:00 AM


Visibility: 9 mi

Pressure: 29.91 "Hg

Humidity: 92%

Dew point: 56 °F

Location of OberwartLocation

Historic Weather in Oberwart — Graph

°F

Oberwart temperature yesterday

Maximum temperature yesterday: 73 °F (at 2:00 PM)
Minimum temperature yesterday: 61 °F (at 4:00 AM)
Average temperature yesterday: 66 °F

Past Weeks' High & Low Weather Summary

 TemperatureHumidityPressure
High94 °F (Aug 30, 4:00 PM)95% (Aug 23, 8:00 AM)30.22 "Hg (Aug 23, 8:00 AM)
Low53 °F (Aug 26, 7:00 AM)19% (Aug 31, 3:00 PM)29.68 "Hg (Sep 1, 7:00 PM)
Average71 °F64%29.99 "Hg
* Reported Aug 21 5:00 AM — Sep 5 5:00 AM, Oberwart, Weather by CustomWeather, © 2015

Note: Actual official high and low records may vary slightly from our data, if they occured in-between our weather recording intervals... More about our weather records

Advertising

Oberwart weather history for previous 24 hours

 ConditionsComfort  
Time TempWeatherWind HumidityBarometerVisibility
5:00 AM
Sat, Sep 5
59 °FLight rain. Overcast.1 mph92%29.91 "Hg9 mi
3:00 AM58 °FCool.1 mph90%29.93 "HgN/A
2:00 AM59 °FCool.1 mph87%29.93 "HgN/A
11:00 PM
Fri, Sep 4
62 °FCool.3 mph75%29.94 "HgN/A
8:00 PM64 °FOvercast.3 mph67%29.93 "Hg16 mi
6:00 PM72 °FMild.2 mph44%29.93 "HgN/A
5:00 PM72 °FOvercast.No wind40%29.95 "Hg19 mi
4:00 PM72 °FMild.2 mph41%29.95 "HgN/A
3:00 PM72 °FMild.5 mph41%29.96 "HgN/A
2:00 PM73 °FMild.5 mph38%29.96 "HgN/A
1:00 PM72 °FMild.3 mph38%29.96 "HgN/A
12:00 PM72 °FMild.5 mph42%29.97 "HgN/A
11:00 AM70 °FPartly sunny.5 mph48%29.97 "Hg19 mi
10:00 AM67 °FMild.8 mph56%29.96 "HgN/A
9:00 AM63 °FMild.7 mph66%29.94 "HgN/A
8:00 AM62 °FOvercast.7 mph71%29.94 "Hg19 mi
7:00 AM61 °FOvercast.7 mph72%29.93 "Hg19 mi
Weather by CustomWeather, © 2015

See weather overviewHow to use our weather pages